Location: Caixon
(43.4106°N, 0.0273°E)
Time: 22:07:33
(UTC+00:00)

Cosmos 2298 Rocket - Pass Details

Date: 16 October 2021
Orbit: 776 x 783 km, 74.0° (Epoch: 07 December)

Event Time Altitude Azimuth Distance (km) Brightness Sun altitude
Rises 04:14:42 0° 338° (NNW) 3,265 7.1 -22.6°
Reaches altitude 10° 04:17:05 10° 338° (NNW) 2,334 6.4 -22.1°
Maximum altitude 04:22:23 82° 253° (WSW) 790 3.9 -21.2°
Drops below altitude 10° 04:27:40 10° 165° (SSE) 2,320 6.6 -20.2°
Sets 04:30:02 0° 164° (SSE) 3,245 7.4 -19.8°
